Weather History for La Grange, TX

Change the Weather History Date:

Wednesday, April 24, 2013

  Actual Average (KAUS) Record (KAUS)
Temperature  
Mean Temperature 58 °F 69 °F  
Max Temperature 68 °F 82 °F 94 °F (2003)
Min Temperature 47 °F 57 °F 41 °F (1995)
Degree Days  
Heating Degree Days 8 1  
Month to date heating degree days 58  
Since 1 July heating degree days 1895  
Cooling Degree Days 0 5  
Month to date cooling degree days 94  
Year to date cooling degree days 152  
Growing Degree Days 8 (Base 50)    
Moisture  
Dew Point 45 °F    
Average Humidity 65    
Maximum Humidity 90    
Minimum Humidity 44    
Precipitation  
Precipitation 0.03 in 0.09 in 1.86 in (1957)
Month to date precipitation 1.70  
Year to date precipitation 8.81  
Snow  
Snow 0.00 in - - ()
Month to date snowfall  
Since 1 July snowfall  
Snow Depth -    
Sea Level Pressure  
Sea Level Pressure 30.16 in    
Wind  
Wind Speed 12 mph (North)    
Max Wind Speed 18 mph    
Max Gust Speed 28 mph    
Visibility 10 miles    
Events Rain    
T = Trace of Precipitation, MM = Missing Value Source: NWS Daily Summary

Daily Weather History Graph

Daily Weather History Graph

Search for Another Location

Airport:

Trip Planner

Search our weather history database for the weather conditions in past years. The results will help you decide how hot, cold, wet, or windy it might be!

Date:

Astronomy

Apr. 24, 2013 Rise Set
Actual Time 6:51 AM CDT 8:00 PM CDT
Civil Twilight 6:26 AM CDT 8:25 PM CDT
Nautical Twilight 5:56 AM CDT 8:55 PM CDT
Astronomical Twilight 5:26 AM CDT 9:26 PM CDT
Moon 7:07 PM CDT (4/24) 5:50 AM CDT (4/24)
Length of Visible Light 13h 59m
Length of Day
13h 09m
Waxing Gibbous, 98% of the Moon is Illuminated
Apr 24
Waxing Gibbous
Apr 25
Full
May 2
Last Quarter
May 9
New
May 17
First Quarter

Hourly Weather History & Observations

Time (CDT) Temp. Dew Point Humidity Pressure Visibility Wind Dir Wind Speed Gust Speed Precip Events Conditions
12:15 AM 55.8 °F 48.2 °F 76% 30.07 in 10.0 mi North 10.4 mph 20.7 mph N/A   Mostly Cloudy
12:35 AM 54.7 °F 46.9 °F 75% 30.08 in 10.0 mi North 15.0 mph 23.0 mph N/A   Overcast
12:55 AM 54.5 °F 46.9 °F 76% 30.09 in 10.0 mi North 13.8 mph 20.7 mph N/A   Overcast
1:15 AM 52.9 °F 47.8 °F 83% 30.11 in 5.0 mi North 15.0 mph 21.9 mph 0.02 in Rain Heavy Rain
1:35 AM 51.4 °F 47.8 °F 87% 30.11 in 10.0 mi North 13.8 mph 20.7 mph 0.03 in   Mostly Cloudy
1:55 AM 50.7 °F 47.5 °F 89% 30.11 in 10.0 mi North 18.4 mph 23.0 mph 0.03 in Rain Rain
2:15 AM 50.0 °F 47.3 °F 90% 30.11 in 10.0 mi North 15.0 mph 21.9 mph N/A   Mostly Cloudy
2:35 AM 49.6 °F 46.9 °F 90% 30.11 in 10.0 mi North 11.5 mph 20.7 mph N/A   Overcast
2:55 AM 49.3 °F 46.6 °F 90% 30.12 in 10.0 mi North 16.1 mph 23.0 mph N/A   Overcast
3:15 AM 49.1 °F 45.9 °F 89% 30.12 in 10.0 mi North 15.0 mph 21.9 mph N/A   Overcast
3:35 AM 48.9 °F 45.5 °F 88% 30.13 in 10.0 mi North 12.7 mph 23.0 mph N/A   Overcast
3:55 AM 48.6 °F 44.6 °F 86% 30.13 in 10.0 mi North 16.1 mph 27.6 mph N/A   Overcast
4:15 AM 48.4 °F 44.4 °F 86% 30.14 in 10.0 mi North 13.8 mph 21.9 mph N/A   Overcast
4:35 AM 48.2 °F 44.4 °F 87% 30.15 in 10.0 mi North 17.3 mph 21.9 mph N/A   Overcast
5:15 AM 47.5 °F 43.9 °F 87% 30.16 in 10.0 mi North 12.7 mph 23.0 mph N/A   Mostly Cloudy
5:35 AM 47.3 °F 43.7 °F 87% 30.15 in 10.0 mi North 9.2 mph - N/A   Overcast
5:55 AM 47.5 °F 43.9 °F 87% 30.17 in 10.0 mi North 11.5 mph - N/A   Light Drizzle
6:15 AM 47.3 °F 43.3 °F 86% 30.17 in 10.0 mi North 12.7 mph 19.6 mph N/A   Light Drizzle
6:35 AM 47.5 °F 43.0 °F 84% 30.18 in 10.0 mi North 12.7 mph 17.3 mph N/A   Overcast
6:55 AM 47.5 °F 42.8 °F 84% 30.19 in 10.0 mi North 13.8 mph 19.6 mph N/A   Overcast
7:15 AM 47.5 °F 41.0 °F 78% 30.18 in 10.0 mi North 15.0 mph 23.0 mph N/A   Overcast
7:35 AM 47.7 °F 41.0 °F 78% 30.19 in 10.0 mi North 15.0 mph 21.9 mph N/A   Overcast
7:55 AM 47.8 °F 41.4 °F 78% 30.20 in 10.0 mi North 16.1 mph 23.0 mph N/A   Overcast
8:15 AM 48.2 °F 42.3 °F 80% 30.21 in 10.0 mi North 13.8 mph 19.6 mph N/A   Overcast
8:35 AM 48.2 °F 41.4 °F 77% 30.21 in 10.0 mi North 16.1 mph 24.2 mph N/A   Overcast
8:55 AM 48.2 °F 40.5 °F 75% 30.21 in 10.0 mi North 13.8 mph 24.2 mph N/A   Overcast
9:15 AM 49.1 °F 41.2 °F 74% 30.21 in 10.0 mi North 15.0 mph 21.9 mph N/A   Overcast
9:35 AM 49.5 °F 41.9 °F 75% 30.21 in 10.0 mi North 13.8 mph 21.9 mph N/A   Overcast
9:55 AM 50.7 °F 41.5 °F 71% 30.22 in 10.0 mi North 12.7 mph 19.6 mph N/A   Mostly Cloudy
10:15 AM 50.5 °F 41.4 °F 71% 30.21 in 10.0 mi North 12.7 mph 19.6 mph N/A   Mostly Cloudy
10:55 AM 53.6 °F 41.5 °F 64% 30.21 in 10.0 mi NNE 15.0 mph 24.2 mph N/A   Mostly Cloudy
11:15 AM 55.4 °F 41.7 °F 60% 30.21 in 10.0 mi North 17.3 mph 25.3 mph N/A   Scattered Clouds
11:35 AM 56.5 °F 42.4 °F 59% 30.21 in 10.0 mi NNE 10.4 mph 20.7 mph N/A   Scattered Clouds
11:55 AM 56.7 °F 42.4 °F 59% 30.20 in 10.0 mi North 15.0 mph 19.6 mph N/A   Scattered Clouds
12:15 PM 59.0 °F 43.3 °F 56% 30.19 in 10.0 mi NNE 12.7 mph 20.7 mph N/A   Scattered Clouds
12:35 PM 59.9 °F 43.3 °F 54% 30.19 in 10.0 mi North 15.0 mph 23.0 mph N/A   Clear
12:55 PM 61.5 °F 43.7 °F 52% 30.18 in 10.0 mi NNE 13.8 mph 26.5 mph N/A   Clear
1:15 PM 61.5 °F 44.1 °F 53% 30.18 in 10.0 mi NNE 12.7 mph 24.2 mph N/A   Clear
1:35 PM 62.4 °F 44.4 °F 52% 30.17 in 10.0 mi North 13.8 mph 19.6 mph N/A   Clear
1:55 PM 63.5 °F 45.3 °F 52% 30.17 in 10.0 mi North 12.7 mph 20.7 mph N/A   Clear
2:15 PM 64.4 °F 45.3 °F 50% 30.18 in 10.0 mi North 9.2 mph 17.3 mph N/A   Clear
2:35 PM 64.9 °F 45.1 °F 49% 30.17 in 10.0 mi NE 8.1 mph - N/A   Clear
2:55 PM 66.0 °F 45.9 °F 48% 30.16 in 10.0 mi NE 9.2 mph 17.3 mph N/A   Clear
3:15 PM 66.7 °F 46.0 °F 47% 30.16 in 10.0 mi NNE 10.4 mph 16.1 mph N/A   Clear
3:35 PM 66.9 °F 45.7 °F 46% 30.15 in 10.0 mi NE 8.1 mph - N/A   Clear
3:55 PM 68.0 °F 45.1 °F 44% 30.14 in 10.0 mi NNE 12.7 mph 20.7 mph N/A   Clear
4:15 PM 67.6 °F 45.7 °F 45% 30.14 in 10.0 mi North 10.4 mph - N/A   Clear
4:35 PM 67.6 °F 45.7 °F 45% 30.13 in 10.0 mi NNE 8.1 mph 16.1 mph N/A   Scattered Clouds
4:55 PM 67.1 °F 44.8 °F 45% 30.13 in 10.0 mi North 10.4 mph - N/A   Scattered Clouds
5:15 PM 68.2 °F 45.3 °F 44% 30.13 in 10.0 mi NNE 10.4 mph - N/A   Scattered Clouds
5:35 PM 68.0 °F 45.1 °F 44% 30.14 in 10.0 mi NNE 10.4 mph - N/A   Clear
5:55 PM 67.1 °F 45.1 °F 45% 30.14 in 10.0 mi North 6.9 mph - N/A   Clear
6:15 PM 67.1 °F 45.3 °F 45% 30.15 in 10.0 mi NNE 6.9 mph - N/A   Clear
6:35 PM 66.7 °F 45.0 °F 45% 30.15 in 10.0 mi NE 5.8 mph - N/A   Clear
6:55 PM 66.7 °F 45.9 °F 47% 30.15 in 10.0 mi NNE 4.6 mph - N/A   Clear
7:15 PM 66.2 °F 46.4 °F 49% 30.15 in 10.0 mi NNE 6.9 mph - N/A   Clear
7:35 PM 65.3 °F 46.2 °F 50% 30.15 in 10.0 mi North 6.9 mph - N/A   Clear
7:55 PM 64.4 °F 46.6 °F 52% 30.16 in 10.0 mi North 4.6 mph - N/A   Clear
8:15 PM 63.5 °F 46.4 °F 54% 30.17 in 10.0 mi NNE 3.5 mph - N/A   Clear
8:35 PM 62.6 °F 47.3 °F 57% 30.17 in 10.0 mi North 3.5 mph - N/A   Clear
8:55 PM 62.6 °F 47.5 °F 58% 30.17 in 10.0 mi NNE 3.5 mph - N/A   Mostly Cloudy
10:15 PM 63.1 °F 46.4 °F 54% 30.21 in 10.0 mi NNE 5.8 mph - N/A   Mostly Cloudy
10:35 PM 63.0 °F 46.6 °F 55% 30.22 in 10.0 mi North 6.9 mph - N/A   Mostly Cloudy
10:55 PM 62.6 °F 46.6 °F 56% 30.22 in 10.0 mi NNE 6.9 mph - N/A   Scattered Clouds
11:15 PM 62.6 °F 46.9 °F 57% 30.21 in 10.0 mi North 5.8 mph - N/A   Scattered Clouds
11:35 PM 62.4 °F 46.9 °F 57% 30.21 in 10.0 mi North 8.1 mph - N/A   Scattered Clouds
11:55 PM 61.7 °F 47.3 °F 59% 30.22 in 10.0 mi North 6.9 mph - N/A   Scattered Clouds